Location: Berua Church
(35.0423°N, 88.5987°W)
Time: 21:14:15
(UTC+00:00)

Cosmos 614 Rocket - Pass Details

Date: 08 December 2019
Orbit: 733 x 763 km, 74.1° (Epoch: 19 January)

Event Time Altitude Azimuth Distance (km) Brightness Sun altitude
Rises 23:46:40 0° 179° (S) 3,170 7.4 -12.9°
Reaches altitude 10° 23:49:07 10° 172° (S) 2,246 6.6 -13.4°
Maximum altitude 23:53:54 43° 102° (ESE) 1,032 4.3 -14.3°
Enters shadow 23:57:25 17° 38° (NE) 1,794 5.4 -15.0°
